EHI
0 0 0 0 0 0 1 3 7 9 9 8 6 5 4 3 5 5 3 1 2 2 1 1 3 3 1 1 1 1 1 0 0 0 0 0 0 0 1 1 1 1 2
0 0 0 0 0 0 0 3 7 8 9 8 7 5 4 3 3 4 3 2 3 2 1 1 2 3 2 2 2 1 0 0 0 0 0 0 0 0 0 0 0 1 2
0 0 0 0 0 0 1 3 6 7 7 8 7 5 4 3 2 1 1 2 2 2 2 1 2 3 3 3 2 1 0 0 0 0 0 0 0 0 0 0 0 0 1
0 0 0 0 0 0 1 3 4 5 6 6 6 6 5 3 1 0 0 1 1 1 2 2 2 3 3 3 1 0 0 0 0 0 0 0 0 0 0 0 0 0 0
0 0 0 0 0 0 1 2 3 3 5 5 6 5 4 2 0 0 0 0 0 0 1 1 1 2 2 2 1 0 0 0 0 0 0 0 0 0 0 0 0 0 0
0 0 0 0 0 0 0 1 1 1 2 5 5 4 2 1 1 1 1 0 1 1 1 1 1 0 1 1 0 0 0 0 0 0 0 0 0 0 0 1 0 0 0
0 0 0 1 1 1 1 0 0 0 1 2 3 2 1 1 1 2 1 1 1 1 1 1 1 0 0 0 0 0 0 0 0 0 0 0 0 0 0 0 0 0 0
1 0 0 1 2 2 2 2 1 1 0 1 1 1 1 0 1 1 1 0 1 1 0 0 0 0 0 0 0 0 0 0 0 0 0 0 0 0 0 0 0 0 0
1 0 0 1 1 1 2 3 2 1 0 0 0 0 0 0 0 0 0 0 0 0 0 0 0 0 0 0 0 0 0 0 0 0 0 0 0 0 0 0 0 0 0
1 0 0 0 0 0 1 1 1 1 0 0 0 0 0 0 0 0 0 0 0 0 0 0 0 0 0 0 0 0 0 0 0 0 0 0 0 0 0 0 0 0 0
0 0 0 0 0 0 0 0 0 0 0 0 0 0 0 0 0 0 0 0 0 0 0 0 0 0 0 0 0 0 0 0 0 0 0 0 0 0 0 0 0 0 0
0 0 0 0 0 0 0 0 0 0 0 0 0 0 0 0 0 0 0 0 0 0 0 0 0 0 0 0 0 0 0 0 0 0 0 0 0 0 0 0 0 0 0
0 0 0 0 0 0 0 0 0 0 0 0 0 0 0 0 0 0 0 0 0 0 0 0 0 0 0 0 0 0 0 0 0 0 0 0 0 0 0 0 0 0 0
0 0 0 0 0 0 0 0 0 0 0 0 0 0 0 0 0 0 0 0 0 0 0 0 0 0 0 0 0 0 0 0 0 0 0 0 0 0 0 0 0 0 0
0 0 0 0 0 0 0 0 0 0 0 0 0 0 0 0 0 0 0 0 0 0 0 0 0 0 0 0 0 0 0 0 0 0 0 0 0 0 0 0 0 0 0
0 0 0 0 0 0 0 0 0 0 0 0 0 0 0 0 0 0 0 0 0 0 0 0 0 1 0 0 0 0 0 0 0 0 0 0 0 0 0 0 0 0 0
0 0 0 0 0 0 0 0 0 0 0 0 0 0 0 0 0 0 0 0 0 0 0 0 0 0 0 0 0 0 0 0 0 0 0 0 0 0 0 0 0 0 0
0 0 0 0 0 0 0 0 0 0 0 0 0 0 0 0 0 0 0 0 0 0 0 0 0 0 0 0 0 0 0 0 0 0 0 0 0 0 0 0 0 0 0
0 0 0 0 0 0 0 0 0 0 0 0 0 0 0 0 0 0 0 0 0 0 0 0 0 0 0 0 0 0 0 0 0 0 0 0 0 0 0 0 0 0 0
0 0 0 0 0 0 0 0 0 0 0 0 0 0 0 0 0 0 0 0 0 0 0 0 0 0 0 0 0 0 0 0 0 0 0 0 0 0 0 0 0 0 0
0 0 0 0 0 0 0 0 0 0 0 0 0 0 0 0 0 0 0 0 0 0 0 0 0 0 0 0 0 0 0 0 0 0 0 0 0 0 0 0 0 0 0
0 0 0 0 0 0 0 0 0 0 0 0 0 0 0 0 0 0 0 0 0 0 0 0 0 0 0 0 0 0 0 0 0 0 0 0 0 0 0 0 0 0 0
0 0 0 0 0 0 0 0 0 0 0 0 0 0 0 0 0 0 0 0 0 0 0 0 0 0 0 0 0 0 0 0 0 0 0 0 0 0 0 0 0 0 0
0 0 0 0 0 0 0 0 0 0 0 0 0 0 0 0 0 0 0 0 0 0 0 0 0 0 0 0 0 0 0 0 0 0 0 0 0 0 0 0 0 0 0
0 0 0 0 0 0 0 0 0 0 0 0 0 0 0 0 0 0 0 0 0 0 0 0 0 0 0 0 0 0 0 0 0 0 0 0 0 0 0 0 0 0 0
0 0 0 0 0 0 0 0 0 0 0 0 0 0 0 0 0 0 0 0 0 0 0 0 0 0 0 0 0 0 0 0 0 0 0 0 0 0 0 0 0 0 0
Wind_Speed
3 4 8 9 9 9 9 9 9 9 9 9 9 9 8 8 8 8 7 6 5 5 5 5 5 5 5 5 5 6 6 6 6 6 6 6 6 6 6 7 7 4 7
5 5 9 9 9 9 9 8 8 8 8 9 8 8 8 7 7 7 6 5 5 4 4 4 4 4 4 4 4 5 5 5 5 5 5 5 5 6 6 6 6 4 7
5 4 6 9 9 9 9 8 8 8 8 8 8 8 7 7 6 6 5 5 4 4 4 3 3 3 3 3 4 4 4 4 4 5 5 3 2 5 5 6 6 6 7
5 4 5 8 9 8 8 8 7 7 7 7 7 7 7 6 6 6 5 5 4 4 4 3 3 2 2 2 3 3 3 3 4 4 3 2 1 4 5 5 6 6 7
3 3 4 9 8 8 8 8 7 7 7 7 7 7 7 6 6 5 5 4 4 4 4 3 2 2 1 1 2 2 3 3 4 4 2 2 1 3 4 5 5 6 6
2 2 3 7 8 8 8 8 8 8 7 7 7 7 7 7 6 6 6 5 5 4 4 3 3 2 1 0 1 2 2 3 4 2 2 1 0 2 4 5 5 6 6
1 0 1 4 5 6 7 8 8 8 8 8 8 8 7 8 7 7 7 6 6 5 5 4 4 4 2 1 0 1 1 2 2 1 1 1 1 3 4 5 5 5 5
3 2 3 3 4 5 7 8 8 8 9 9 9 9 9 9 9 8 7 7 7 6 6 5 4 4 3 2 1 1 1 1 2 1 1 1 2 3 4 5 5 5 5
5 3 3 4 3 4 5 6 8 8 9 10 10 10 10 9 9 9 8 8 8 8 7 6 5 5 4 3 3 2 1 1 1 0 1 1 3 3 4 4 5 5 6
6 6 5 5 5 4 5 7 7 8 9 10 10 10 10 10 10 9 9 9 9 9 9 8 7 7 6 5 4 3 1 1 0 1 1 2 4 5 4 5 5 6 6
7 6 6 6 5 5 5 6 7 8 8 8 8 10 9 5 4 5 8 9 10 10 10 9 8 7 6 4 4 3 0 0 1 1 1 3 5 5 5 5 5 5 6
7 6 5 6 5 5 5 4 3 3 4 4 3 4 3 3 4 6 7 11 11 11 11 10 10 8 5 1 2 2 0 1 1 2 2 5 5 6 5 6 5 5 6
4 5 5 5 5 5 4 3 2 2 3 3 4 4 3 3 3 4 3 5 5 7 5 5 5 3 2 2 1 1 2 2 2 2 2 5 6 6 6 6 6 6 6
5 6 6 5 5 5 4 3 3 2 2 2 3 4 3 2 3 3 3 3 3 2 3 3 2 3 3 3 3 3 3 2 2 2 3 6 6 6 6 6 6 6 7
5 7 7 6 5 5 4 4 3 3 3 3 3 3 3 3 4 4 3 3 4 3 3 3 3 4 4 3 4 4 4 4 4 3 2 6 6 7 7 7 7 6 7
6 6 6 6 5 5 4 4 4 4 4 3 3 4 4 3 4 4 4 4 4 4 3 3 4 4 3 3 4 4 5 4 4 4 3 4 6 6 7 7 7 7 7
6 6 6 7 5 6 6 5 4 4 4 3 3 4 4 4 4 4 4 4 4 4 4 3 3 3 3 3 3 4 4 4 4 5 4 3 3 5 6 7 7 8 8
6 6 7 7 7 7 6 5 4 4 4 4 3 4 4 5 4 4 4 4 4 3 3 3 3 3 3 2 2 2 2 3 4 5 4 4 3 3 4 6 7 8 8
6 6 7 7 7 7 7 6 5 4 4 4 3 3 4 4 4 3 4 3 3 3 3 4 3 3 3 3 2 2 2 2 3 4 5 5 4 3 3 4 6 7 7
6 6 6 7 7 7 6 5 4 4 3 3 3 4 4 4 4 3 3 4 3 3 4 4 3 3 2 2 2 1 0 1 1 2 4 4 3 4 4 3 3 4 6
7 7 7 7 7 6 4 4 4 4 4 4 3 4 4 4 4 3 3 3 4 4 5 5 4 4 3 2 2 1 1 1 1 1 2 2 4 4 4 4 3 3 3
7 7 7 7 8 7 5 4 3 4 4 4 4 4 4 4 4 3 3 3 4 4 5 5 4 3 3 4 4 3 1 1 1 1 1 3 3 3 4 5 4 4 3
7 8 7 8 8 7 7 4 4 3 3 3 4 4 4 4 4 4 4 3 3 4 4 6 6 6 4 3 3 4 4 4 1 0 1 2 3 3 3 3 5 5 5
7 7 7 7 8 7 7 5 5 4 4 5 4 4 5 4 4 4 4 4 3 3 4 5 6 5 5 4 3 2 2 3 3 2 0 1 2 3 3 4 5 5 5
7 7 7 7 7 7 7 6 6 5 4 5 5 5 5 4 4 3 3 3 3 3 4 4 4 5 5 5 4 3 2 1 2 3 2 1 1 1 2 3 3 4 5
7 6 7 7 7 7 7 7 6 7 7 7 7 6 5 4 3 3 3 3 3 3 4 4 4 5 5 6 5 4 4 4 4 3 3 2 2 1 1 2 3 3 4
Wind_Direction
195 195 182 165 163 161 157 153 149 147 145 143 142 142 142 141 140 139 138 136 133 128 122 117 111 105 96 89 82 79 77 77 81 82 84 86 88 98 105 107 107 103 111
164 174 175 167 165 167 164 162 158 156 154 152 152 151 150 148 146 145 145 143 141 136 131 126 122 115 105 95 85 78 74 77 81 83 80 75 84 100 107 115 117 117 115
147 161 169 170 169 170 171 171 168 165 163 162 162 160 160 160 160 160 159 156 154 151 144 140 134 126 111 93 81 72 67 71 82 87 80 57 72 100 109 120 123 122 122
150 153 168 177 175 175 177 179 178 177 174 173 173 172 172 172 172 173 171 170 171 169 165 157 154 140 118 91 74 66 61 64 79 90 82 60 52 102 115 123 126 126 126
146 151 180 183 182 182 184 186 186 187 185 186 185 185 186 186 185 184 185 186 187 186 182 180 178 168 140 99 62 51 52 63 76 81 86 72 40 108 119 122 127 126 129
135 149 203 192 193 193 195 195 196 196 197 198 198 198 198 198 196 198 201 203 204 202 200 201 205 207 204 167 42 34 44 60 76 81 94 104 67 124 121 123 129 129 130
88 34 288 213 210 211 210 210 209 208 207 209 209 209 208 210 209 209 212 215 215 215 215 216 222 223 228 238 308 360 19 59 96 110 126 157 199 149 130 126 128 127 128
55 29 349 280 252 242 235 230 228 225 222 219 219 220 218 218 219 219 220 222 223 225 225 224 230 233 236 246 266 284 24 34 94 123 162 198 206 160 138 132 127 124 124
39 27 356 341 323 292 274 259 249 246 240 235 232 229 227 226 227 227 227 228 230 231 231 231 234 241 246 252 259 264 248 68 101 192 209 210 213 178 154 141 130 124 120
32 22 7 348 346 334 317 295 284 275 263 254 247 242 237 234 232 233 234 235 237 236 235 235 236 240 243 249 256 259 236 87 145 241 236 227 216 193 169 147 133 125 122
23 14 7 354 350 339 317 313 308 296 285 276 262 256 252 242 236 239 240 240 242 243 240 238 237 240 242 249 257 265 295 150 254 257 233 235 219 202 182 160 148 139 135
6 359 1 352 344 333 324 326 315 301 292 282 271 263 252 237 232 234 238 245 247 248 247 243 238 239 240 220 269 287 215 236 247 256 240 239 225 208 188 173 161 151 145
348 348 347 339 336 335 328 323 319 309 301 285 275 260 251 243 236 235 226 245 252 252 247 246 241 217 193 194 211 223 231 233 231 248 249 242 227 212 195 182 170 162 153
352 344 341 341 338 335 330 319 310 309 306 301 287 274 256 247 236 226 221 220 222 228 227 217 208 207 204 207 215 225 234 230 224 228 246 248 235 219 204 190 182 172 160
350 341 336 334 339 333 329 318 321 306 298 292 286 274 252 247 248 240 231 222 217 214 216 214 206 208 214 214 218 222 226 228 226 221 236 245 238 223 211 196 187 179 168
342 335 329 328 333 334 326 314 304 301 297 295 289 280 265 244 243 241 238 229 222 215 212 209 207 205 210 208 222 222 223 220 222 218 217 237 234 220 214 204 193 186 177
329 328 328 326 338 333 322 313 310 297 296 290 285 282 273 258 246 239 234 230 224 213 209 206 205 194 204 209 224 229 224 218 216 212 208 207 215 215 212 208 200 191 184
331 329 326 334 333 326 319 309 302 296 293 287 286 284 278 268 251 240 235 233 218 204 198 198 187 190 203 197 209 228 227 217 216 207 198 195 188 193 210 211 202 195 191
330 325 324 326 327 324 319 310 300 295 291 288 288 284 280 276 262 240 236 235 218 207 202 205 188 186 192 196 204 213 221 220 210 201 194 191 184 178 183 210 206 199 194
328 325 323 326 326 323 317 314 308 304 298 293 289 285 285 278 270 251 240 232 216 209 208 205 191 178 179 180 199 195 255 251 200 197 198 186 181 182 181 188 193 203 199
331 331 329 330 328 331 327 325 319 314 309 303 292 289 289 284 276 258 251 234 218 215 211 203 192 182 184 155 129 89 8 357 203 202 189 181 187 184 176 184 184 178 192
325 326 328 330 328 330 323 308 287 287 289 283 288 294 287 286 280 269 250 238 225 219 215 205 191 177 184 170 151 133 171 312 290 214 183 193 194 176 185 190 182 182 178
326 325 328 326 327 327 325 319 314 309 302 308 311 307 298 289 276 265 252 240 229 219 217 210 197 188 185 183 172 156 165 199 208 260 212 196 181 182 190 180 185 184 181
319 322 325 327 329 330 333 334 333 326 316 305 303 297 301 292 284 270 255 242 232 225 222 216 202 193 179 180 186 187 161 155 157 172 267 209 192 193 193 190 188 185 182
316 324 328 332 332 335 340 339 335 328 312 309 310 311 312 309 298 287 266 250 241 228 221 215 204 198 190 185 178 170 154 135 144 151 176 186 196 212 195 191 184 184 184
319 328 334 337 334 337 340 341 342 335 328 327 328 326 322 315 308 306 290 261 248 236 222 214 212 206 199 194 188 178 167 165 173 161 159 164 182 212 194 185 189 191 188